Theta_e
303 303 304 304 304 304 304 304 304 303 303 300 298 301 296 295 292 304 306 307 303 295 289 291 289 287 289 294 293 294 292 290 292 290 292 288 292 290 290 289 290 293 292 291 290 291 288 289 288 291 292 293 295 298 297 298 298 297 296 298 299 302 294 290 291 295 297 298 300 300 300 299 297 297 298 297 294 295 294 293 295 292 293 291 291 287 293
303 304 303 303 304 304 304 304 304 303 303 300 300 296 294 295 295 297 306 308 303 292 284 284 286 288 291 291 290 293 291 291 289 289 291 289 290 290 290 292 295 292 296 294 290 293 286 291 292 290 294 292 299 298 298 298 295 295 296 294 301 291 295 292 287 287 290 292 295 295 298 298 295 294 296 298 298 298 298 298 300 291 293 293 290 285 294
302 303 303 303 303 303 303 303 304 303 303 303 300 293 296 296 299 298 300 304 300 289 291 288 286 287 288 288 287 289 290 293 292 291 290 294 293 292 291 293 294 294 295 292 294 293 291 289 294 294 294 294 299 298 298 298 296 298 301 311 301 294 293 292 285 282 280 280 281 284 287 291 295 297 296 297 297 297 296 290 293 288 294 295 291 289 301
302 302 302 302 302 303 303 303 303 303 303 303 300 298 294 292 285 292 295 299 297 296 298 293 290 288 287 285 288 290 287 293 294 294 293 295 295 295 294 295 297 294 294 292 290 291 294 292 291 292 292 294 296 297 298 297 298 302 310 305 301 296 297 295 292 289 287 289 292 295 295 294 291 293 295 295 297 298 298 296 292 289 292 291 295 296 300
301 301 301 301 302 302 302 302 303 303 302 303 300 299 296 295 287 287 286 293 296 293 296 293 293 288 291 285 289 287 289 292 292 295 290 296 295 296 295 295 292 292 292 291 291 292 292 294 293 292 293 294 296 297 297 297 299 306 301 304 299 296 292 294 295 295 295 295 295 296 296 293 294 294 294 296 296 297 297 292 291 298 293 288 296 302 299
300 300 301 301 302 302 302 302 303 302 302 303 302 294 295 287 291 292 294 287 285 288 289 293 292 293 294 289 292 289 289 290 288 293 295 296 296 291 294 294 295 293 292 292 288 291 291 292 289 294 293 293 295 293 296 295 301 302 297 300 297 295 289 295 296 295 296 297 296 297 296 295 295 295 295 295 296 296 295 297 297 299 291 290 299 304 301
299 300 300 301 301 301 301 302 302 302 302 302 301 292 295 293 292 293 296 287 290 290 291 293 293 292 292 291 292 289 289 288 292 292 291 293 292 293 286 291 293 293 295 294 290 292 287 288 293 293 292 293 292 291 293 296 298 297 297 298 301 296 292 296 296 295 296 296 296 297 295 295 295 295 296 296 296 296 296 297 299 298 298 298 299 303 303
299 299 300 301 301 301 302 302 302 302 301 302 297 295 289 287 287 287 293 291 290 292 293 292 292 290 293 288 291 292 291 289 292 294 292 286 290 292 290 293 294 294 295 294 291 293 296 295 290 295 295 293 293 292 294 293 295 296 295 296 300 295 290 294 296 293 292 295 297 296 296 295 294 295 296 296 296 296 296 298 299 301 299 300 300 301 299
299 299 299 300 301 301 301 302 302 302 302 297 294 294 295 294 295 294 287 285 289 291 292 291 291 289 292 290 292 292 292 291 294 293 296 293 291 292 291 295 296 294 295 295 295 298 298 299 299 300 299 290 295 292 294 297 293 295 295 297 298 296 291 296 295 289 290 295 295 295 296 296 294 294 295 295 296 295 296 294 299 297 296 299 300 296 297
299 299 299 300 301 301 301 302 302 301 302 296 295 291 297 296 298 297 292 284 290 289 292 292 291 287 292 292 292 291 292 294 294 289 296 297 298 297 296 297 295 294 294 294 296 299 300 302 302 302 302 302 302 298 297 297 295 295 295 298 294 295 293 290 291 288 288 294 295 295 295 293 290 291 295 296 297 298 298 298 300 301 302 296 292 295 301
299 299 299 300 300 301 301 301 302 301 301 295 292 292 295 291 290 292 292 285 288 290 290 290 290 292 294 295 293 295 294 294 295 289 289 296 297 300 299 298 295 292 293 297 303 304 306 306 303 305 304 303 302 298 298 298 298 297 296 295 295 296 295 291 295 287 288 294 295 295 290 283 285 297 302 300 298 297 296 297 300 302 302 299 301 302 306
298 299 299 300 300 300 301 301 301 301 301 300 299 295 297 298 295 293 288 283 284 290 289 287 289 292 292 293 294 293 293 294 294 297 293 295 297 300 299 299 298 288 299 305 306 305 305 307 306 305 303 303 300 299 298 297 297 298 299 296 295 295 294 291 294 288 287 292 293 286 282 284 300 303 303 302 301 300 298 299 300 300 301 302 301 302 304
298 299 299 299 300 300 300 301 301 301 301 301 300 293 298 300 294 291 289 286 284 287 286 289 293 293 294 294 294 294 296 297 298 299 298 296 296 299 301 298 297 299 304 304 304 302 299 295 298 298 298 300 299 299 297 297 296 298 299 298 296 292 292 292 290 290 290 289 287 280 282 297 301 305 305 307 303 302 302 298 300 301 301 302 300 302 304
298 298 299 299 299 300 300 300 301 302 302 301 298 297 299 299 293 291 289 285 285 289 290 289 292 293 293 293 294 295 297 297 299 300 297 300 298 299 301 302 304 305 305 305 302 300 295 294 290 292 292 295 294 293 296 297 296 296 297 297 298 297 295 293 288 293 285 287 287 286 296 295 297 299 301 301 298 299 297 291 296 302 303 302 301 302 303
298 298 298 299 299 299 300 300 301 301 301 301 301 300 300 300 298 294 293 289 284 286 289 285 290 292 293 293 295 293 294 296 295 297 301 303 300 302 302 304 306 306 306 303 300 299 293 290 288 286 288 288 284 286 294 292 295 299 300 299 298 299 293 294 290 287 289 287 286 286 286 283 289 299 304 306 307 305 306 299 295 306 304 304 303 302 303
298 298 298 298 299 299 299 300 300 301 301 301 300 300 300 302 302 299 294 289 286 282 290 293 294 293 291 293 295 294 292 293 295 296 297 299 299 302 305 306 307 306 304 303 301 295 292 288 286 286 284 287 291 289 287 293 291 297 299 299 298 299 298 296 291 288 288 287 285 285 283 286 296 299 303 305 305 305 305 298 292 302 304 305 304 303 304
298 298 298 298 299 299 299 300 300 301 301 301 299 299 298 304 301 298 293 291 288 284 292 294 295 294 292 292 295 294 296 293 296 291 290 293 298 301 303 306 308 305 304 300 300 293 290 289 289 290 292 294 288 287 292 291 290 292 296 299 296 295 293 292 289 288 288 287 285 285 288 288 297 301 303 304 306 307 301 287 288 302 304 305 305 304 305
298 298 298 298 298 299 299 300 300 301 301 301 300 298 297 303 304 300 295 290 286 287 292 295 294 291 291 293 292 296 298 298 297 298 295 297 299 299 301 303 302 305 305 296 297 291 290 289 287 287 286 294 295 294 285 291 288 288 290 292 291 291 291 291 288 288 288 287 287 289 290 298 305 303 306 306 309 303 290 285 293 309 311 306 306 305 307
297 298 298 298 298 298 299 299 300 300 301 301 301 299 299 302 303 303 296 290 288 285 293 297 297 294 296 299 296 297 298 297 296 292 292 292 297 302 302 303 303 295 301 294 297 291 289 289 294 291 288 291 295 287 294 289 288 293 293 290 290 290 291 290 291 288 287 288 286 287 292 302 305 307 306 308 303 290 288 306 310 311 309 309 306 306 307
297 298 298 298 298 298 299 299 300 300 301 301 300 296 298 301 303 304 296 289 290 288 292 294 296 294 299 296 295 294 296 298 298 295 293 291 300 302 299 293 301 301 298 299 291 296 290 288 290 295 290 291 293 298 292 292 296 293 292 294 290 290 288 287 287 289 290 289 287 285 283 295 309 307 304 307 295 295 307 310 312 312 312 312 308 306 307
298 298 298 298 298 298 299 299 299 300 300 301 300 297 296 302 303 305 304 298 292 288 291 302 302 300 300 299 300 300 298 295 297 295 298 298 302 299 289 290 297 297 293 294 289 290 291 290 293 291 296 293 298 295 288 290 293 299 296 294 293 297 288 289 289 293 287 286 285 286 295 303 310 306 296 304 306 310 313 311 310 312 313 312 311 313 311
297 297 298 298 298 298 299 299 299 300 301 301 300 298 295 300 302 303 303 302 295 291 294 300 301 300 300 301 301 302 301 301 303 304 299 296 302 299 299 301 301 300 301 301 298 293 297 297 297 292 290 293 297 291 294 289 286 295 300 298 288 297 294 295 289 295 291 290 295 301 307 308 308 310 311 310 314 315 314 314 311 311 312 314 313 312 316
297 297 297 298 298 298 298 299 299 300 300 301 300 298 295 297 300 303 303 297 299 300 301 300 301 302 303 304 305 305 304 305 305 305 305 300 296 301 300 302 300 305 303 304 297 299 297 296 292 299 292 294 293 291 295 293 289 294 291 299 297 300 300 304 299 296 301 304 305 307 306 307 308 310 313 313 313 313 315 313 311 313 314 314 314 316 316
298 297 297 298 298 298 298 299 299 300 300 300 300 298 297 299 300 300 299 299 296 293 298 302 298 295 301 304 308 307 305 304 305 306 308 307 296 296 303 305 306 305 304 304 309 301 300 298 298 299 292 297 300 293 290 289 290 296 296 294 297 302 302 299 296 300 295 290 302 305 305 307 308 310 312 315 314 314 314 312 313 313 313 315 316 317 316
297 297 297 297 298 298 298 299 299 299 300 300 300 301 300 299 302 302 298 291 292 292 288 293 297 303 306 309 311 307 306 307 308 306 307 306 304 300 300 306 308 303 302 305 308 305 300 294 298 298 291 300 300 291 298 292 293 300 292 295 297 297 305 299 299 297 292 293 301 305 308 310 310 309 308 308 311 312 312 314 315 315 316 316 317 317 316
297 297 298 298 298 298 298 299 299 299 300 300 300 298 297 297 302 303 301 300 300 297 290 291 298 308 308 307 306 308 310 307 306 306 306 306 307 307 306 307 306 309 307 307 306 300 298 296 297 295 295 293 304 295 294 301 298 300 296 295 302 302 302 294 300 296 298 301 303 307 307 307 307 307 308 311 314 313 311 314 315 315 314 316 316 319 315
297 297 297 298 298 298 299 299 299 299 299 300 299 299 299 300 304 302 300 300 296 292 295 293 299 303 306 304 307 309 310 308 307 306 306 307 307 308 307 306 304 305 305 303 304 299 298 297 296 295 300 296 300 300 301 300 298 294 294 303 305 303 297 302 299 293 292 295 301 305 296 294 304 308 310 312 314 314 313 313 314 314 313 313 314 314 317
297 297 297 298 298 298 299 299 299 299 299 299 300 300 302 302 304 306 307 305 300 292 292 292 294 300 305 303 309 310 310 309 308 306 306 306 307 307 306 305 305 303 301 299 295 296 295 294 296 297 296 302 299 295 303 303 303 298 298 301 304 300 300 301 295 296 295 303 308 309 307 307 308 310 312 313 314 314 312 313 313 313 313 314 313 313 314
297 297 298 298 298 298 299 299 299 299 299 299 300 300 302 305 306 308 309 310 306 299 296 296 299 299 294 301 308 307 309 310 308 308 307 307 307 307 306 305 304 303 301 299 296 296 296 296 297 298 298 304 300 296 298 291 292 291 298 304 305 306 307 306 306 306 306 308 307 310 308 305 309 312 312 311 314 313 313 314 314 313 313 313 313 313 313
297 297 297 298 298 299 299 299 299 299 299 299 298 299 299 303 309 310 309 309 307 302 293 291 289 293 306 306 305 305 306 310 309 309 308 307 307 307 306 304 303 303 301 296 296 294 297 297 295 303 305 310 300 297 293 295 294 295 302 305 307 307 308 308 310 306 304 308 309 311 312 310 311 311 312 313 313 314 314 312 313 313 312 313 312 313 314
297 297 298 298 299 299 299 299 299 299 299 298 298 293 295 293 302 309 306 309 308 302 295 294 291 296 296 307 307 303 305 305 307 307 308 309 308 308 307 305 303 302 297 298 296 296 297 295 296 300 306 306 300 296 296 295 292 297 301 305 305 306 307 307 310 310 309 309 309 310 311 311 312 311 310 311 312 313 313 312 312 311 315 312 312 313 313
297 297 298 298 298 299 299 299 299 299 299 297 294 296 300 301 304 305 305 305 306 300 294 291 291 294 295 299 305 306 304 306 306 308 308 310 306 307 305 304 302 304 300 298 297 297 296 297 294 299 300 303 299 298 298 298 293 296 302 304 306 307 308 308 308 309 310 310 310 308 308 309 311 310 308 311 312 313 312 312 312 313 311 312 313 313 313
297 298 298 298 298 299 299 299 300 300 299 300 302 302 302 302 302 303 304 306 303 298 300 294 290 293 292 298 305 304 304 305 304 306 304 307 305 306 301 304 304 304 306 298 295 294 299 296 296 296 303 307 295 296 298 294 297 300 300 303 306 307 307 308 309 308 308 309 311 306 304 306 308 310 311 312 312 312 312 311 311 312 312 311 310 310 311
298 298 298 298 299 299 299 300 300 300 300 299 297 301 307 304 304 303 305 307 303 303 300 295 291 292 293 303 297 302 303 299 300 302 296 305 307 304 300 301 303 296 300 296 297 295 297 294 294 294 301 296 299 294 291 296 302 301 303 305 306 306 307 308 308 307 307 308 309 309 308 308 310 311 312 311 311 312 312 311 310 310 310 309 309 309 310
298 298 298 299 299 300 300 300 300 300 299 301 302 308 305 303 304 306 306 305 297 294 295 295 295 292 292 293 293 297 303 300 298 299 295 301 309 301 302 296 297 293 295 303 295 295 293 294 302 295 293 301 294 291 291 298 300 302 304 304 306 306 307 304 305 307 307 308 308 308 310 309 308 307 309 309 309 310 310 309 310 310 308 308 308 308 309
298 298 299 299 300 300 301 303 302 303 302 303 306 305 302 306 305 308 309 308 303 297 295 295 295 293 293 289 289 295 304 298 303 302 300 299 302 305 302 298 293 296 304 295 293 297 292 301 297 292 295 292 291 294 299 302 301 303 303 304 305 305 304 305 305 306 306 307 307 308 308 307 306 306 307 308 308 308 309 308 308 309 308 307 307 308 307
298 299 300 300 301 303 302 302 307 307 305 304 303 304 302 304 308 308 307 304 306 306 299 296 293 294 296 293 295 296 300 290 298 296 298 294 293 299 298 295 292 295 294 294 293 292 297 304 296 292 293 292 293 302 303 304 304 303 302 304 305 306 306 305 306 307 306 306 306 305 305 306 305 306 306 306 306 308 308 307 307 307 306 306 306 306 307
299 300 299 300 302 297 297 299 307 306 304 303 302 304 305 303 298 299 299 297 302 302 297 300 293 298 301 297 292 300 298 294 300 293 293 295 292 292 294 292 293 293 289 291 294 300 296 294 293 292 293 301 302 302 303 304 304 305 305 305 305 305 305 306 305 304 304 302 302 303 303 304 304 304 304 304 305 305 307 308 308 308 308 306 307 306 306
299 301 302 301 298 295 296 303 308 305 306 306 306 299 296 299 297 293 295 298 297 296 300 299 296 300 298 296 297 305 299 292 292 295 291 297 292 289 293 288 291 293 290 290 294 302 292 291 291 292 293 298 300 300 303 304 304 305 305 305 306 306 306 305 304 304 303 303 302 303 303 301 303 303 304 304 305 306 307 307 307 307 307 306 306 305 305
299 294 292 293 294 296 302 306 305 304 306 299 301 297 292 298 294 290 296 293 294 294 299 295 301 300 300 297 295 295 303 297 290 291 292 294 298 290 292 292 293 290 286 287 290 300 291 287 290 290 292 298 299 302 303 304 303 304 305 305 306 306 305 305 305 305 305 305 305 304 305 305 305 304 303 303 303 303 305 306 306 306 306 306 304 304 304
295 293 293 291 296 298 301 302 305 305 299 295 295 294 292 290 295 295 293 291 290 291 299 298 300 298 300 301 299 294 302 304 302 300 294 291 296 297 291 288 293 289 287 286 292 294 291 289 289 290 292 299 300 302 303 303 303 303 304 305 305 305 305 305 305 305 305 305 305 305 305 305 304 304 304 304 304 304 304 304 305 305 304 303 304 304 304
294 293 294 297 298 299 300 302 300 296 295 297 291 288 291 291 294 293 293 288 289 292 297 298 294 296 297 299 299 298 298 303 301 295 292 289 292 291 289 291 292 287 284 290 295 293 290 286 287 290 297 300 301 302 302 302 302 303 303 304 304 304 304 304 304 304 305 305 304 304 304 305 304 304 304 304 304 303 303 303 304 303 303 303 303 303 303
298 299 299 297 297 296 298 293 296 294 288 288 287 285 289 287 289 289 290 294 299 296 297 303 301 302 302 304 300 302 297 303 295 292 291 289 293 293 289 289 288 285 288 295 291 289 286 285 287 293 300 301 302 302 302 302 302 303 303 304 304 304 304 304 303 304 305 305 304 304 304 304 305 305 305 305 304 303 303 303 302 303 303 303 302 302 302
298 298 296 294 292 292 295 284 295 291 288 289 286 282 286 286 289 291 288 291 296 294 299 297 297 296 293 300 297 296 298 299 297 294 293 293 291 288 287 285 287 290 296 291 289 286 287 289 292 297 300 302 303 303 302 302 303 303 303 303 304 304 304 304 304 304 303 304 304 304 304 304 304 305 305 305 304 303 302 302 302 302 301 302 301 301 302
293 291 291 290 288 292 290 283 293 289 284 286 289 288 288 286 289 291 291 295 298 295 299 299 299 299 296 301 298 298 294 292 295 291 287 290 288 289 287 286 290 291 288 286 288 288 288 288 297 299 300 300 302 303 303 303 303 302 303 303 303 304 304 303 303 304 303 303 303 304 303 303 304 304 305 304 304 304 303 302 302 301 301 300 300 300 301
290 288 288 285 283 289 288 285 288 285 289 291 290 292 293 294 295 295 299 301 298 298 297 298 299 298 295 299 293 293 295 294 291 290 291 291 287 284 290 293 292 286 286 287 285 284 287 291 296 299 301 302 303 303 303 303 304 304 302 302 303 303 304 304 304 303 303 303 304 304 304 304 304 304 303 304 304 303 303 303 303 302 301 300 299 299 299
290 290 290 289 285 289 291 286 287 290 293 294 296 297 296 297 298 300 301 301 299 300 300 301 300 299 295 295 295 295 295 294 289 291 292 287 285 288 291 288 284 285 283 282 284 286 290 294 297 301 302 303 303 303 303 303 303 303 303 303 303 303 303 303 303 303 303 303 303 303 303 304 303 304 303 303 303 304 302 303 303 302 301 300 300 300 300
285 290 290 284 283 288 286 289 295 296 298 298 298 299 301 300 298 297 300 301 301 301 299 299 296 297 295 299 298 292 293 294 289 290 291 288 289 286 285 285 284 287 287 286 287 292 294 295 299 302 304 304 304 303 303 303 303 304 303 303 303 303 303 302 302 303 303 303 302 303 303 303 304 303 303 303 303 304 304 303 302 302 301 300 300 301 300
290 288 286 286 289 291 291 295 294 291 294 296 299 298 299 298 297 299 301 302 301 300 301 298 295 295 291 295 293 292 289 293 287 287 289 287 284 281 283 281 283 283 287 292 292 294 296 298 301 304 305 304 304 304 304 304 304 304 303 303 303 303 303 303 303 303 303 303 303 303 303 303 304 304 303 303 303 303 304 304 303 302 301 300 301 301 299
287 287 288 286 287 289 293 295 293 291 294 295 296 296 298 297 297 298 302 300 301 300 300 299 298 293 292 292 289 290 290 293 290 290 288 285 284 285 285 283 285 286 289 294 295 297 299 300 302 304 304 304 304 305 304 304 302 303 304 304 303 303 303 303 303 303 303 303 303 303 303 304 303 303 303 303 303 304 304 304 304 303 302 301 301 300 298
289 288 288 293 288 287 291 287 288 288 290 294 295 297 297 297 297 297 301 300 300 296 295 292 293 291 290 289 288 286 288 293 289 287 287 286 288 286 285 284 286 291 294 296 298 298 299 301 303 303 304 304 304 305 304 303 303 303 304 304 303 303 303 304 303 303 303 304 304 299 303 303 303 304 304 305 304 303 302 302 302 302 302 301 301 300 299
287 285 285 289 291 291 291 291 293 294 295 296 296 296 297 296 298 299 303 300 298 293 291 293 292 290 288 286 288 291 293 290 287 288 287 289 290 286 286 288 293 296 297 297 299 299 299 301 302 303 305 304 304 305 305 304 304 304 304 304 304 303 303 303 303 303 303 303 304 304 304 304 304 304 304 304 303 302 301 301 301 302 301 302 301 301 300
Wind_Speed
23 23 22 23 23 23 24 25 26 24 25 15 13 11 9 7 8 5 3 5 5 4 7 7 2 4 6 10 7 8 8 7 8 9 5 6 3 3 5 6 7 7 3 8 10 10 9 11 7 8 9 9 12 18 19 13 18 14 9 12 13 5 5 10 11 9 10 14 13 17 18 14 15 14 13 12 14 15 9 8 6 8 10 8 5 5 2
22 24 24 23 22 23 24 25 25 25 22 15 12 9 8 8 9 2 5 3 4 5 6 8 7 8 10 10 11 3 4 8 8 6 7 4 3 4 5 5 3 7 11 11 9 11 7 10 8 10 10 7 13 18 10 15 13 14 7 8 10 5 7 9 9 8 10 10 12 15 18 15 12 12 14 15 13 17 14 9 6 4 9 11 6 8 3
22 23 24 24 24 24 25 25 26 25 24 18 11 8 8 9 7 6 3 5 5 6 7 8 7 9 12 12 13 8 4 4 7 8 8 6 5 6 5 6 9 9 8 7 8 11 7 7 7 10 10 8 12 19 9 15 13 14 13 3 11 5 10 10 10 12 13 13 15 16 16 16 10 13 17 18 16 17 13 9 7 5 6 14 7 4 9
20 22 23 24 24 25 25 24 23 24 24 22 11 8 7 5 5 5 4 2 6 7 7 8 8 10 10 10 7 9 8 6 4 5 6 5 5 6 8 7 8 7 6 6 8 12 10 7 7 9 9 5 10 9 15 15 12 17 5 8 7 4 8 9 10 10 10 11 10 9 9 8 11 15 19 19 17 15 12 6 6 8 5 7 10 7 11
21 21 22 23 22 23 24 24 22 23 25 24 13 8 3 6 2 4 6 10 3 5 5 6 8 9 10 8 9 11 11 6 2 2 3 5 8 7 6 7 7 6 3 6 11 12 11 8 9 10 10 7 8 13 12 14 12 7 8 6 4 4 5 14 14 15 11 10 11 14 17 16 16 16 17 16 17 16 13 8 9 9 7 8 7 11 12
21 21 21 22 22 23 24 24 23 23 24 27 10 6 6 3 3 6 4 5 7 10 5 10 13 13 11 8 8 9 9 9 6 1 2 7 8 7 3 5 5 7 5 3 2 10 9 9 6 10 7 10 10 9 13 13 10 8 6 6 8 8 3 9 13 13 12 13 13 15 16 16 15 15 13 13 14 17 17 10 13 9 6 5 5 10 9
21 21 21 22 22 22 22 23 22 22 25 22 7 6 5 5 6 5 7 6 7 10 15 17 14 15 12 8 8 10 11 10 9 5 5 6 4 5 3 7 6 6 5 5 2 5 8 4 6 6 7 10 10 9 13 12 13 12 8 8 5 7 5 9 13 10 10 10 13 15 18 16 16 16 14 14 15 17 18 13 10 12 10 10 5 12 9
21 21 21 21 22 21 22 23 22 20 23 14 7 6 5 5 5 5 9 8 11 11 10 9 11 11 9 5 8 9 10 12 11 5 3 2 5 4 4 6 8 5 1 4 4 5 11 8 4 3 6 10 8 8 8 11 14 13 11 9 3 2 5 10 12 9 10 14 13 10 9 11 14 15 16 15 14 16 16 10 9 11 11 8 7 8 7
21 21 21 22 22 22 23 23 23 19 19 8 7 4 5 5 5 6 8 10 6 9 9 9 9 9 6 5 8 9 10 10 11 8 4 6 2 5 3 7 7 5 5 2 5 6 5 9 8 9 7 7 8 6 8 11 13 15 9 7 7 4 4 10 9 4 7 9 8 11 12 14 16 15 15 16 14 12 11 10 9 9 8 8 9 8 6
20 20 20 21 21 22 22 22 21 19 16 5 5 5 7 7 6 7 6 6 8 10 10 10 8 5 7 9 11 9 13 11 11 8 5 6 7 7 7 9 5 7 1 4 2 2 5 8 11 9 10 6 6 9 7 9 10 8 10 6 7 8 5 5 5 6 6 9 12 7 6 9 11 11 13 16 13 11 11 13 13 11 7 6 5 9 6
20 20 20 20 21 21 21 21 21 20 12 8 7 5 8 7 7 6 5 8 7 8 9 8 8 7 12 12 13 12 11 11 9 8 4 11 9 9 6 6 5 2 4 3 12 5 5 7 11 10 11 10 10 12 10 12 12 8 7 6 5 8 8 5 6 4 5 12 10 4 3 7 7 2 7 10 11 13 15 12 10 9 8 8 7 6 6
19 19 19 19 20 21 21 21 20 20 14 8 7 6 5 6 7 4 4 6 7 9 8 7 10 11 13 13 12 12 12 12 11 9 11 9 10 8 7 1 5 3 9 13 10 8 8 10 8 6 9 10 1 7 12 12 13 9 9 9 6 7 5 4 8 4 4 5 5 4 7 7 5 6 7 7 7 13 18 14 16 15 15 13 10 9 6
19 19 19 19 19 20 20 19 19 20 17 9 7 7 5 6 6 4 5 5 6 9 8 10 14 14 11 12 12 12 12 12 11 10 9 9 9 8 5 3 7 3 3 4 5 6 3 2 7 6 7 12 0 6 12 16 16 12 10 11 7 4 4 4 4 3 3 6 6 7 7 1 2 5 7 7 6 8 5 14 14 16 14 12 12 13 10
18 18 19 19 19 19 19 20 19 19 19 13 7 8 7 7 6 4 3 4 8 8 10 12 11 10 13 13 12 13 12 10 10 8 9 6 8 8 7 7 6 4 4 4 4 4 2 5 5 2 4 3 4 5 8 12 13 14 12 12 12 10 6 3 4 7 5 5 7 7 3 2 5 2 5 6 6 6 2 2 12 14 12 14 14 13 11
18 19 19 19 19 18 19 19 19 19 18 16 7 7 6 6 5 4 3 3 8 12 9 5 9 13 14 13 11 10 9 10 10 7 8 5 7 5 7 7 5 6 5 5 4 4 2 3 4 5 1 0 5 3 5 9 12 13 10 12 12 11 8 6 5 3 4 5 6 6 6 6 4 9 6 4 7 7 6 3 6 4 11 11 11 14 15
19 18 18 18 18 18 18 18 18 18 18 17 8 6 8 6 5 3 3 3 5 7 2 9 12 11 10 10 12 11 8 8 9 10 8 3 4 4 4 2 5 6 5 4 3 2 3 2 2 2 3 5 6 4 5 7 7 8 9 12 14 12 9 6 5 3 4 5 7 6 6 3 2 6 8 7 5 3 1 2 8 6 8 9 13 15 13
19 19 19 18 18 19 19 18 18 18 18 18 10 9 6 5 3 3 4 3 3 8 14 16 11 9 8 8 7 6 7 6 9 7 7 6 9 9 8 7 4 4 3 5 3 1 2 1 2 1 1 2 6 4 7 6 7 10 9 6 10 12 7 4 5 5 4 4 4 5 3 1 1 5 9 9 6 4 5 7 8 5 10 10 10 9 12
19 18 18 19 18 18 18 18 18 18 17 17 12 9 8 8 4 2 3 3 4 7 6 6 6 7 6 6 9 9 8 7 8 8 7 10 7 7 7 8 5 3 3 3 2 0 1 1 2 2 0 2 2 5 5 7 7 8 13 9 8 7 5 6 7 6 6 6 4 3 2 3 6 3 5 7 7 8 7 8 1 4 7 11 11 11 9
19 18 18 18 19 18 18 18 18 18 18 17 13 10 6 6 6 4 4 3 3 7 8 9 10 12 12 9 10 10 9 10 9 7 6 6 4 9 10 9 4 2 3 2 2 2 2 1 2 4 4 6 6 3 1 5 7 8 11 11 9 8 5 5 5 7 7 6 6 5 1 0 4 6 5 7 7 6 7 1 4 6 6 7 13 14 13
19 19 19 19 18 18 18 18 18 17 17 18 13 10 10 10 8 4 4 3 3 10 14 13 9 12 7 7 8 7 7 7 6 7 6 7 8 13 6 2 1 4 4 2 3 2 2 2 2 2 4 4 2 2 5 5 6 10 10 11 7 7 5 8 8 5 5 4 5 5 6 2 6 11 9 7 5 1 3 3 4 6 6 7 8 14 12
18 18 19 19 19 18 18 19 18 18 17 17 14 10 10 7 7 4 5 7 6 9 9 5 3 8 8 11 12 12 11 11 8 7 7 8 8 7 3 3 6 3 3 3 3 1 2 2 3 1 5 1 2 3 3 4 7 8 11 10 9 10 7 5 5 6 6 5 6 2 3 6 5 7 3 5 2 2 1 4 3 7 8 5 5 3 5
19 18 18 19 19 19 18 18 19 18 18 17 17 10 9 8 8 7 7 5 7 8 9 13 14 16 17 16 16 15 16 16 15 10 9 7 7 6 7 9 6 5 3 5 5 2 1 2 5 1 1 4 2 5 3 4 4 6 5 7 8 10 8 2 1 4 5 1 4 4 2 5 4 5 5 4 6 3 4 3 4 3 2 6 5 3 10
18 19 19 19 19 19 18 19 18 18 18 18 14 9 10 10 9 8 7 7 7 10 12 13 12 13 14 16 18 18 17 15 14 12 10 8 6 6 7 5 2 2 1 2 4 4 3 7 5 2 0 4 2 6 6 5 2 8 6 9 4 7 11 3 2 6 2 8 7 8 6 5 4 4 2 4 3 3 2 4 3 3 4 6 6 5 8
18 19 19 19 20 20 19 19 19 18 18 17 13 10 10 9 11 10 7 7 6 9 10 7 4 5 6 8 8 12 11 12 14 13 9 7 7 5 4 6 6 3 1 2 4 6 4 3 5 4 2 2 4 3 3 3 3 5 3 6 7 6 8 7 3 1 6 2 5 7 8 5 3 6 2 2 2 2 2 1 1 3 4 5 5 2 5
18 19 20 19 19 19 20 19 19 18 18 18 15 11 10 10 8 7 7 5 3 3 5 7 9 16 17 10 5 6 12 10 9 10 9 9 10 8 5 4 7 5 8 8 5 5 2 4 5 2 3 1 2 3 1 2 4 5 4 6 6 6 5 8 6 8 6 1 4 5 10 6 4 5 5 5 4 3 2 1 2 2 3 1 1 5 6
20 19 19 19 19 20 20 19 19 19 18 18 17 11 10 10 10 9 8 8 8 5 5 7 8 11 12 1 8 10 9 13 10 10 10 10 10 9 9 8 7 6 7 6 5 4 3 3 3 3 3 1 3 3 3 4 4 10 8 2 4 5 5 4 7 8 8 6 6 5 11 3 6 6 3 2 5 4 3 1 3 2 3 2 1 3 6
20 20 20 20 20 20 20 20 20 19 19 19 13 11 11 11 9 9 7 6 8 4 4 7 8 13 11 17 17 3 13 11 10 9 8 10 9 7 7 7 8 7 7 6 5 4 3 3 3 4 1 2 3 3 6 3 2 4 5 5 7 3 3 8 6 7 3 3 2 6 1 2 3 9 2 4 5 4 4 3 3 4 3 2 6 4 3
21 21 21 22 21 21 20 20 20 21 20 21 15 12 11 11 10 8 7 6 6 5 8 10 11 12 17 19 17 12 12 9 9 8 7 7 7 6 5 5 5 5 4 4 2 2 3 3 3 1 2 3 2 2 2 0 1 4 9 1 1 3 3 5 4 3 3 3 4 3 3 5 8 5 1 3 2 2 2 3 5 4 1 4 3 6 7
21 21 22 22 22 22 21 20 20 19 21 19 13 13 12 12 10 7 5 3 5 7 7 11 13 11 6 7 12 3 15 10 9 8 6 6 6 5 4 3 4 3 3 3 3 3 3 3 2 4 1 1 1 4 3 1 4 3 2 2 3 5 5 5 1 3 6 3 2 5 2 3 3 2 2 1 1 1 3 2 6 4 4 1 4 5 9
22 22 23 23 23 22 21 19 18 17 18 12 10 8 6 5 1 2 2 1 3 4 4 6 6 3 9 8 8 1 8 10 9 7 7 6 7 5 4 2 2 1 2 2 2 3 2 3 3 3 2 5 2 1 2 3 2 3 4 3 1 6 6 2 3 1 3 3 2 3 5 5 5 4 4 3 1 3 5 3 2 3 3 2 4 4 7
23 23 23 24 23 23 22 21 19 17 16 8 6 3 3 2 4 4 4 3 4 5 4 3 8 7 8 7 8 5 5 7 5 6 6 5 5 5 4 4 2 3 1 2 2 3 2 2 2 1 2 2 1 2 2 2 2 4 6 6 4 4 6 3 3 6 5 5 4 5 5 5 4 5 4 4 2 2 3 6 7 9 4 7 4 3 4
24 24 24 24 24 23 23 22 20 15 9 8 7 5 3 3 3 5 7 6 6 6 3 5 6 4 3 4 4 3 5 7 5 5 5 5 5 5 5 5 3 5 3 2 2 2 2 2 2 4 6 4 1 4 5 4 2 1 6 2 6 1 3 4 4 6 5 4 4 4 4 5 5 3 5 3 2 5 4 4 5 2 4 5 6 4 4
24 25 25 24 25 25 24 22 21 14 9 12 19 24 26 27 22 19 11 8 6 5 3 3 5 3 3 4 1 7 5 4 5 6 5 5 5 6 3 4 3 3 3 2 1 1 2 1 1 3 3 3 1 2 3 1 1 1 7 13 2 5 4 3 4 5 5 6 3 3 3 5 5 5 4 5 5 5 5 4 3 3 5 7 7 5 5
25 25 26 26 25 25 25 23 20 19 16 10 9 8 7 15 14 12 9 6 5 5 3 3 3 5 6 5 8 3 8 7 6 6 4 5 5 5 3 4 4 1 3 2 1 1 1 1 2 2 2 2 3 2 1 4 3 5 9 7 2 3 3 4 5 5 5 4 5 6 6 4 3 3 2 6 6 5 5 9 4 5 4 5 6 6 6
26 27 26 27 26 25 26 24 12 7 6 6 8 1 5 8 7 6 8 4 4 3 4 4 3 6 6 4 5 4 2 6 3 3 0 6 6 5 4 2 2 1 1 3 1 3 1 3 3 2 1 4 0 0 1 5 7 11 5 4 2 4 5 5 4 4 5 4 3 3 3 5 6 6 5 8 5 3 4 5 5 6 6 6 5 5 5
27 28 28 26 28 23 13 9 7 5 6 6 1 4 2 2 5 5 6 6 6 4 3 3 3 7 6 7 4 2 3 8 4 4 1 4 6 5 4 3 3 5 5 4 2 4 3 3 2 2 4 1 1 1 3 4 3 6 7 6 7 6 8 7 6 5 6 4 3 1 4 3 3 8 8 6 5 3 4 5 3 5 7 6 5 5 4
29 28 29 27 13 5 6 4 6 4 3 4 5 5 2 5 5 5 5 4 6 7 6 3 5 7 8 5 2 2 5 5 2 1 3 4 2 4 5 4 2 2 3 3 2 1 2 4 2 1 2 2 3 4 5 7 3 6 7 6 2 4 5 4 3 3 4 5 5 4 6 7 8 5 6 4 5 3 4 5 5 5 7 8 6 6 5
28 28 13 8 6 4 3 2 2 2 4 6 3 3 4 4 3 3 3 3 5 6 4 5 6 9 8 7 5 4 5 4 4 3 2 2 1 2 2 2 1 1 1 0 1 1 1 1 2 2 2 4 4 4 4 5 6 5 5 3 4 4 3 5 7 9 3 3 3 5 7 2 7 7 3 4 3 2 2 3 4 4 5 6 6 6 7
23 11 7 5 5 2 3 3 1 4 6 4 4 2 3 2 2 2 3 3 3 5 5 6 7 9 9 5 5 4 3 3 5 6 1 3 2 1 1 3 1 1 1 3 2 2 3 2 1 2 3 5 5 4 5 5 6 6 4 3 3 4 6 7 5 6 6 5 6 7 4 8 7 4 3 3 3 5 4 4 4 5 5 6 7 7 6
6 7 4 5 3 5 8 4 6 9 4 3 3 2 2 3 3 3 3 3 3 3 3 5 7 8 2 4 6 0 3 5 3 4 4 1 2 3 1 2 1 1 3 1 2 3 2 3 3 3 3 3 6 4 5 4 6 4 3 3 3 5 5 4 4 2 1 7 8 6 6 5 5 5 4 2 3 3 3 4 4 5 4 5 7 7 7
7 7 6 4 8 7 7 10 8 5 3 2 2 3 2 3 4 2 2 4 3 3 4 6 5 4 3 4 6 4 4 1 3 4 3 2 1 3 3 2 1 2 1 2 1 1 2 1 3 3 3 5 6 5 4 4 6 4 3 3 4 5 4 4 5 4 4 5 6 6 5 5 5 5 4 3 4 5 4 3 4 6 8 7 8 7 7
9 8 8 11 11 11 10 6 3 2 2 3 2 4 3 3 2 3 3 4 3 3 5 5 6 3 1 4 4 4 1 4 2 2 2 1 1 2 2 1 1 2 1 2 0 2 1 2 2 3 6 6 6 5 4 5 4 5 3 4 4 3 4 4 5 5 6 6 6 6 5 5 5 5 5 5 5 5 4 4 6 7 7 8 8 7 7
22 19 11 7 5 3 2 2 3 2 2 3 3 2 3 3 4 5 4 3 2 5 2 1 3 3 4 3 5 3 3 2 3 1 2 1 1 1 2 1 1 2 1 1 3 0 1 1 1 4 5 6 5 5 4 6 6 6 6 4 3 2 3 6 7 7 7 7 7 6 5 6 6 6 6 6 7 6 5 5 6 6 6 6 7 7 7
10 9 6 2 3 3 2 3 2 2 3 2 4 4 3 5 4 4 3 4 5 7 2 2 1 4 2 5 5 1 3 3 1 2 1 0 2 0 0 2 1 2 1 2 2 1 2 2 3 6 6 5 3 4 7 6 5 5 5 6 6 3 5 5 5 6 6 5 6 5 5 6 6 6 6 6 6 7 6 7 6 7 8 8 7 7 8
6 3 1 2 2 2 1 2 3 3 5 4 4 6 5 7 4 6 5 2 3 1 4 4 4 4 6 1 2 2 2 0 3 2 0 1 2 1 1 2 2 2 3 2 1 3 0 2 5 5 6 5 5 6 6 5 5 4 5 5 4 4 3 4 5 6 6 5 6 5 5 6 6 7 7 7 7 6 6 7 7 7 7 8 8 8 7
4 2 2 3 3 3 3 2 2 4 4 4 6 8 8 8 6 4 2 4 6 2 4 1 3 5 6 1 3 2 3 2 3 1 2 2 1 0 1 1 1 3 2 1 1 1 3 4 5 5 5 5 6 7 5 5 4 6 5 4 3 3 4 4 4 5 4 5 6 5 6 5 7 7 7 7 7 7 6 6 6 7 7 7 7 8 7
4 2 2 2 4 3 3 4 4 4 4 7 8 6 6 7 7 3 2 3 4 2 2 3 5 4 5 2 3 3 2 1 1 1 2 1 0 0 0 2 1 1 2 1 1 1 4 5 5 5 5 5 6 6 5 5 4 4 3 5 4 3 1 3 3 5 5 5 6 5 5 5 6 6 6 7 7 7 7 7 7 8 7 8 8 8 8
4 3 3 3 4 2 6 6 7 7 6 7 5 6 7 5 3 5 2 1 3 1 4 3 5 3 5 4 3 4 5 1 1 0 1 0 0 1 0 1 1 0 1 2 2 3 4 4 4 5 5 5 5 5 6 5 4 4 5 5 4 3 3 3 4 4 5 5 4 5 5 4 4 5 6 6 7 8 8 8 8 8 8 8 8 8 9
2 2 3 2 2 3 4 5 6 8 7 6 6 4 6 3 3 7 1 3 3 3 1 4 2 1 3 1 4 3 4 1 2 2 2 2 0 1 1 1 1 0 2 1 4 5 5 5 3 4 5 5 4 4 6 5 5 5 4 5 3 3 3 4 4 5 4 4 4 4 5 4 4 5 6 6 6 6 7 8 8 8 8 8 7 8 9
3 3 3 3 4 5 8 8 6 5 7 7 6 2 4 8 5 2 5 5 4 5 3 4 1 3 3 3 3 3 4 2 2 1 2 1 2 2 2 2 2 3 2 4 4 4 4 5 4 4 5 5 4 5 5 5 5 5 5 5 4 3 3 5 5 4 4 4 4 5 5 5 5 4 5 7 7 6 5 6 7 8 8 8 8 8 9
2 3 4 6 7 6 6 5 4 5 6 7 4 2 5 3 6 1 3 4 4 4 3 3 2 2 3 2 3 3 2 2 0 2 3 2 2 2 2 2 3 0 5 5 5 4 6 4 4 5 5 4 4 5 6 6 5 6 6 6 5 5 5 5 5 4 5 6 5 4 4 5 5 7 6 6 8 7 7 7 7 7 7 7 7 8 9
3 4 5 6 9 11 10 9 7 7 5 6 5 3 4 4 2 4 4 5 4 3 3 2 3 3 1 3 3 3 1 1 3 2 3 1 0 2 2 3 2 3 5 5 6 6 6 5 4 4 4 5 5 5 6 5 4 6 5 5 5 5 6 5 5 5 6 5 5 4 5 5 5 6 7 7 8 7 7 6 7 7 6 6 7 8 9
Wind_Direction
347 350 352 350 349 348 349 350 350 350 350 350 346 327 309 324 322 88 127 156 266 275 277 279 248 252 293 323 312 341 308 299 323 316 323 314 259 262 248 269 304 303 331 264 178 184 163 179 222 159 177 168 213 165 179 184 183 197 201 214 166 209 169 174 178 198 188 186 194 204 225 206 204 209 229 214 204 204 224 208 212 200 201 212 198 237 91
344 347 349 350 350 348 349 349 349 349 354 347 332 318 321 315 306 291 150 174 233 287 316 337 335 327 324 332 332 50 285 317 309 298 314 317 306 304 298 297 250 294 285 267 183 171 151 189 195 166 173 166 220 156 177 181 186 199 187 216 145 203 165 171 163 189 184 188 192 198 215 216 204 205 215 227 215 197 218 233 216 243 208 225 208 210 131
343 345 347 349 352 351 348 348 349 347 346 347 330 316 319 299 277 250 162 167 219 282 324 322 320 317 323 326 325 329 309 283 263 289 299 306 295 304 308 312 309 300 290 282 183 171 176 159 188 182 167 174 204 140 181 202 190 206 202 223 143 217 156 180 181 180 181 191 190 189 193 205 192 209 210 224 232 208 194 220 195 228 214 223 227 209 126
342 343 345 348 349 350 348 348 348 344 341 342 343 323 304 344 323 348 319 246 269 266 283 290 304 309 319 322 301 323 321 335 299 247 299 345 310 302 300 297 303 294 319 297 199 169 181 178 178 170 159 189 126 145 182 209 201 208 323 12 182 202 162 207 197 195 193 205 175 163 192 188 214 205 215 205 223 228 214 201 222 200 200 249 228 237 127
343 344 346 346 347 347 348 348 347 344 340 339 332 306 264 304 326 353 329 322 270 312 306 310 322 310 315 304 325 335 338 330 58 158 333 7 341 324 302 308 332 318 331 222 166 157 178 170 184 165 140 182 133 148 191 197 222 230 303 305 288 203 229 200 204 207 201 194 198 169 192 199 206 212 210 207 203 229 233 201 212 201 216 214 245 118 142
343 344 346 347 348 348 347 348 348 346 339 337 332 321 5 324 22 330 23 308 312 322 322 329 316 313 318 309 319 335 330 19 28 43 246 1 10 354 326 319 307 289 254 199 221 162 172 178 165 110 158 176 143 173 178 200 187 192 229 226 243 185 248 205 209 213 200 184 202 184 187 208 203 219 211 206 213 217 235 240 223 195 229 243 123 115 136
346 345 346 347 347 346 347 349 350 348 342 335 317 352 3 348 325 307 9 321 313 304 299 304 307 312 321 317 330 343 354 10 22 359 347 356 334 4 331 339 308 227 192 191 227 171 155 182 127 152 190 152 151 165 174 171 172 197 208 212 234 170 235 227 205 212 218 206 208 188 188 193 203 207 211 206 212 218 228 243 216 203 208 231 204 141 147
348 347 347 349 347 347 349 349 351 350 343 330 352 29 340 1 341 329 332 309 294 289 301 305 307 308 316 312 342 341 353 351 351 15 348 344 323 49 314 330 313 236 119 245 195 40 3 344 147 37 147 127 176 162 195 141 176 190 208 209 106 210 198 257 245 192 210 241 221 185 196 201 222 210 211 212 214 219 218 225 237 229 229 214 221 144 202
348 347 347 347 346 348 348 351 352 353 348 353 0 350 13 319 302 305 310 314 305 316 309 310 311 310 322 336 348 332 343 346 344 337 301 246 236 141 357 325 334 291 160 62 3 348 329 324 337 326 324 160 183 172 198 164 167 186 169 192 127 194 294 267 237 204 209 232 216 196 190 209 209 204 212 214 212 220 206 213 215 238 217 222 221 210 220
345 348 347 346 347 346 349 350 351 353 345 351 341 332 344 319 319 319 305 292 306 305 310 298 297 311 348 334 332 329 334 334 339 331 324 354 350 47 1 23 12 355 169 143 107 51 286 320 314 309 302 307 291 198 198 172 173 189 159 172 180 182 245 242 192 202 200 212 236 222 233 207 223 221 204 204 213 218 221 215 213 216 221 230 219 211 174
343 346 347 345 346 346 347 349 349 355 352 7 344 327 333 351 327 325 306 305 306 316 322 313 313 343 329 336 331 332 324 325 336 332 322 332 348 346 348 23 30 320 317 277 266 269 216 279 298 307 306 304 250 187 193 169 173 177 162 164 210 181 244 220 179 207 202 212 202 103 262 210 221 249 281 242 209 205 219 217 211 198 200 233 239 245 124
341 344 345 345 344 344 344 347 350 351 352 342 333 316 327 321 313 285 310 317 305 315 316 311 319 321 322 324 323 320 321 324 322 321 306 308 306 317 332 313 111 327 240 235 243 242 229 191 229 315 308 299 147 176 183 171 169 191 174 188 205 190 225 233 156 222 199 169 192 206 225 222 48 347 282 253 270 238 221 226 221 205 196 212 217 213 229
339 341 344 343 344 344 342 343 347 346 349 344 333 324 317 319 307 309 308 305 299 321 320 310 313 305 317 323 321 319 317 308 298 291 278 283 296 299 284 288 282 22 232 308 292 274 350 43 71 320 329 317 243 274 182 181 154 199 177 182 212 204 216 251 176 219 213 170 185 217 226 39 349 356 331 327 300 321 288 213 227 222 210 199 215 212 217
337 340 341 342 343 343 342 341 344 344 343 345 328 322 311 322 334 321 313 315 301 311 310 300 297 330 336 326 322 315 312 308 308 277 276 285 288 293 299 302 331 327 347 351 280 251 168 161 106 359 323 254 183 221 233 164 157 200 179 183 199 188 218 204 177 222 220 195 192 223 120 155 214 215 239 255 264 241 248 316 213 211 212 203 202 214 218
336 338 338 340 341 342 342 338 339 341 340 342 319 312 307 307 308 301 305 285 299 306 289 282 334 323 320 318 322 322 320 329 322 329 313 294 282 276 289 298 312 340 346 323 356 353 312 137 149 138 96 357 162 213 218 166 175 205 176 188 197 189 210 182 217 169 265 191 197 212 231 251 217 204 207 231 262 274 275 260 306 241 214 199 195 196 216
334 336 336 338 339 341 340 336 336 339 339 340 323 312 297 281 289 263 272 288 312 308 337 347 329 315 312 313 308 309 317 317 327 319 309 293 299 301 292 13 356 354 334 322 18 3 291 176 159 183 152 167 120 142 191 175 169 175 188 189 195 188 218 181 225 188 204 238 214 207 232 215 273 171 189 184 223 252 122 320 250 217 271 249 210 206 207
332 334 335 335 337 339 338 335 334 336 337 339 330 317 300 316 288 299 318 274 216 257 286 297 305 302 299 301 316 330 347 326 335 338 322 335 303 359 353 339 317 288 337 305 126 56 307 244 153 235 77 358 147 178 162 184 182 179 192 240 238 195 197 200 219 244 202 225 216 227 234 135 41 147 178 172 161 115 124 208 234 232 237 252 259 241 197
329 333 334 333 335 338 336 334 334 334 334 337 330 325 300 294 258 246 242 253 286 282 268 275 315 310 298 325 310 308 303 302 317 326 300 311 342 15 314 312 316 147 353 283 289 220 298 258 193 191 208 240 247 157 181 167 183 191 179 190 202 207 186 205 215 212 200 200 226 240 122 106 121 147 121 150 155 171 190 202 122 348 311 233 226 247 257
328 330 331 331 332 335 334 332 334 332 333 334 332 313 299 313 307 234 245 239 231 266 268 301 294 272 272 287 273 280 280 290 298 299 312 320 19 328 314 297 298 316 188 255 260 267 260 234 260 240 175 182 217 175 108 210 182 187 181 189 193 199 202 180 228 221 219 194 228 239 89 48 141 120 176 140 163 186 206 73 300 301 297 237 216 220 228
326 327 329 328 330 333 333 331 331 332 331 334 333 319 307 305 291 243 230 249 239 265 285 282 261 262 265 268 286 289 302 289 270 274 298 315 341 332 309 243 108 308 260 242 288 252 254 259 251 232 234 195 215 12 179 229 196 190 187 191 201 181 198 199 201 212 241 213 210 231 233 189 232 148 167 161 205 93 21 312 350 327 336 319 236 203 214
325 325 327 326 328 331 331 330 330 329 330 329 334 319 314 310 308 290 203 245 276 298 293 260 235 258 270 267 263 267 265 263 281 304 319 309 323 323 344 6 320 330 343 312 284 312 294 275 281 282 336 278 134 251 207 181 189 183 197 183 217 174 211 194 210 213 224 200 230 217 16 144 189 149 166 198 47 99 25 310 8 353 345 309 328 287 216
323 324 324 325 326 328 328 329 329 327 328 330 327 315 300 313 311 299 290 286 276 254 264 288 294 283 270 261 260 254 255 255 258 265 282 289 302 301 298 292 319 350 350 332 301 286 80 65 246 285 55 336 280 234 237 179 186 147 190 206 213 169 217 120 234 164 227 317 64 77 32 92 106 80 50 104 123 117 49 352 50 29 349 338 312 348 353
321 321 322 324 325 324 326 325 325 325 326 329 325 314 308 308 300 309 308 285 261 263 263 267 269 266 268 259 241 237 237 243 258 263 255 268 283 286 279 289 356 206 231 350 341 317 344 331 309 340 56 130 289 283 238 254 200 159 185 186 258 157 227 90 199 269 92 110 112 106 98 125 114 66 81 130 138 103 335 47 16 82 357 16 41 350 25
320 319 320 322 323 323 323 323 322 323 323 324 322 311 304 303 299 297 282 260 270 298 295 244 218 285 259 272 224 204 216 234 234 237 245 249 262 276 319 21 323 303 146 249 238 314 309 272 304 348 272 46 268 265 267 226 241 151 201 172 216 209 215 230 236 311 288 186 143 133 131 164 128 99 131 90 189 163 190 190 156 38 24 350 87 169 98
318 318 319 320 320 320 320 321 321 320 322 320 318 305 295 287 280 287 298 309 304 316 294 301 275 259 263 258 109 165 205 211 207 220 220 225 232 256 290 23 7 345 326 324 317 307 290 280 289 249 310 212 254 298 347 334 301 7 183 204 218 222 214 242 218 206 224 267 109 145 150 137 162 167 173 205 136 136 140 251 77 40 13 25 26 145 187
317 317 317 318 318 318 319 318 319 318 318 319 315 305 301 289 292 283 269 261 256 250 279 299 298 311 319 142 179 209 182 184 199 191 211 217 228 243 273 300 297 310 309 309 331 321 324 309 280 302 301 10 354 304 319 357 314 299 283 73 10 322 298 223 193 223 216 164 108 80 65 346 231 215 239 96 136 103 123 96 134 171 128 63 62 145 178
315 316 315 315 315 317 317 317 318 318 318 317 312 298 286 280 270 262 265 290 315 286 236 274 303 305 325 324 309 293 148 168 172 185 194 217 226 234 253 279 301 315 321 315 313 310 287 267 286 285 329 291 56 287 309 300 41 334 292 53 4 2 262 339 303 226 190 34 357 334 179 175 35 336 33 73 86 104 105 161 154 142 118 180 142 133 153
314 314 315 313 314 314 315 316 317 318 319 317 307 293 277 268 257 248 249 242 261 292 304 297 298 302 314 282 267 238 166 162 166 173 193 202 211 230 254 286 304 299 312 320 283 241 238 251 254 334 300 6 320 274 256 2 141 306 272 28 40 88 335 344 340 346 97 106 329 10 123 129 143 208 201 107 55 114 135 133 143 120 75 242 143 121 111
313 311 311 312 310 311 312 314 315 316 318 317 307 295 273 245 241 228 225 237 257 279 288 287 283 273 287 360 310 148 154 164 164 173 187 184 197 197 217 259 281 308 294 272 270 289 284 281 298 298 23 149 294 317 347 273 234 227 152 198 161 121 192 237 206 115 82 101 258 73 125 150 102 70 71 151 106 86 117 110 110 151 195 190 119 155 136
311 311 309 309 308 307 310 311 313 313 317 315 311 295 287 129 177 144 134 242 273 308 300 317 310 291 338 308 292 94 155 171 177 182 186 187 178 179 202 178 260 274 261 250 256 249 287 297 290 274 158 148 278 225 268 290 267 337 286 242 170 156 150 167 166 124 92 72 137 108 110 111 134 155 72 34 210 158 118 143 162 162 151 109 136 157 140
309 309 308 306 306 305 305 308 308 309 310 297 299 292 274 206 118 74 43 270 317 301 292 275 267 302 300 253 254 291 139 158 180 175 199 183 169 175 133 133 184 198 219 221 209 250 285 261 319 332 287 165 168 255 270 311 268 174 246 253 198 176 173 150 116 114 136 137 109 121 120 98 113 115 121 130 5 110 135 113 45 15 50 131 154 148 136
309 307 306 305 302 303 301 300 302 301 289 274 246 249 357 14 359 334 336 327 302 274 263 283 294 259 265 261 230 289 256 157 168 176 181 158 168 144 149 182 180 190 265 314 336 280 249 299 284 280 286 100 167 261 252 239 272 94 302 317 275 230 119 104 112 96 85 44 95 58 97 87 50 97 129 136 123 105 139 103 61 98 68 111 119 147 126
308 306 303 303 300 298 297 295 291 291 281 279 288 290 285 281 269 263 271 269 256 248 260 275 271 294 273 346 114 222 225 167 204 191 184 173 166 165 181 196 173 223 175 235 238 268 23 286 278 268 152 151 208 249 256 284 13 22 328 291 154 95 66 108 90 75 70 50 56 142 116 87 68 59 113 108 111 103 112 113 97 145 124 113 125 138 143
306 305 302 300 298 296 293 290 286 280 272 260 263 247 246 230 240 225 217 228 272 267 251 263 265 274 275 307 289 190 201 219 220 196 174 183 164 182 178 182 186 238 190 206 202 225 255 61 242 252 184 202 229 287 350 303 227 199 238 217 81 111 136 129 90 77 55 66 67 76 97 125 167 148 227 109 84 71 99 101 136 144 131 131 128 143 152
305 302 300 298 296 293 291 285 283 243 231 233 232 139 39 33 37 163 190 224 262 231 224 231 241 282 294 281 211 134 190 285 355 19 2 170 168 177 150 197 137 255 193 193 257 232 205 241 244 223 91 88 217 201 91 268 287 279 265 122 136 143 176 131 111 91 65 36 80 95 201 151 164 157 121 89 86 110 114 116 134 148 133 129 124 112 122
304 301 299 298 296 291 286 253 218 229 216 241 1 114 143 147 175 196 227 235 245 294 290 281 284 282 296 304 347 26 13 279 244 203 186 123 190 188 169 195 214 222 155 164 249 192 206 181 207 251 117 82 55 271 258 138 188 130 91 69 57 54 44 51 78 92 117 107 37 308 21 299 344 82 77 76 85 122 125 123 110 140 132 128 144 129 105
302 300 299 297 287 244 234 235 184 215 356 2 329 337 247 218 212 217 215 228 224 233 268 297 287 279 290 326 317 321 336 313 8 290 152 230 184 157 194 202 247 129 192 207 222 291 17 115 246 83 115 80 115 153 77 54 115 88 55 42 31 34 49 54 11 25 65 45 47 34 5 65 85 63 84 93 78 78 131 154 140 149 153 140 127 143 139
300 298 295 284 262 250 244 164 87 11 277 231 231 215 178 194 216 192 190 231 186 186 220 234 254 266 269 270 287 54 298 334 339 302 174 8 295 200 164 261 96 218 290 357 61 72 277 243 286 56 97 94 105 74 60 101 81 66 67 62 62 59 45 30 20 350 324 118 151 68 30 312 94 62 61 90 101 129 86 130 131 120 118 125 118 111 128
294 282 274 265 263 303 9 37 126 234 263 243 218 281 228 190 235 232 204 188 165 213 211 223 247 252 263 282 297 82 12 324 307 295 325 115 318 11 285 271 116 287 248 249 154 174 249 201 202 203 138 130 126 96 103 63 56 47 59 32 37 48 29 67 32 10 4 75 53 54 47 9 11 91 79 116 75 45 72 92 96 93 122 121 118 121 128
345 337 330 311 325 1 311 346 3 315 270 259 194 237 260 208 225 247 194 209 211 224 194 227 234 243 256 306 309 288 88 318 328 336 336 349 99 317 22 299 121 223 275 25 90 203 288 287 171 161 117 137 106 122 119 139 104 99 106 116 77 51 39 15 50 117 311 68 64 49 19 40 27 45 82 87 103 127 100 98 98 115 84 88 104 138 159
350 337 318 330 340 323 316 311 298 257 250 238 238 209 256 249 218 263 263 241 257 246 196 254 241 241 75 261 247 284 117 236 318 303 300 301 66 281 265 301 41 275 307 66 135 220 248 281 2 69 90 105 121 125 121 95 103 105 85 86 68 54 10 56 67 38 57 74 70 58 61 59 72 80 94 85 73 70 63 84 108 91 87 98 111 126 119
326 301 290 297 292 283 282 261 238 233 231 243 246 236 225 261 234 222 237 258 234 248 182 204 243 275 344 343 352 326 359 52 302 291 287 306 82 285 309 234 167 291 351 87 176 242 269 26 338 87 95 109 121 141 155 108 110 115 96 55 57 29 42 57 77 64 46 66 69 77 72 70 80 97 101 97 91 83 86 91 101 95 104 100 95 110 124
289 277 260 270 279 274 236 259 189 213 220 202 227 264 221 230 226 235 207 210 286 279 112 150 282 284 227 238 243 208 313 13 314 277 270 351 52 234 306 325 264 261 33 247 263 258 37 64 18 89 117 121 148 179 129 109 116 117 127 136 102 89 62 63 53 58 53 58 66 72 78 77 77 85 98 101 98 93 84 77 87 92 93 100 110 119 119
282 271 240 229 268 265 238 248 194 193 238 219 188 226 214 238 224 212 248 235 188 240 263 310 9 303 291 141 280 185 182 191 227 259 308 68 258 164 245 247 40 55 286 262 255 80 44 72 55 91 107 119 159 128 116 125 121 122 121 125 134 129 71 70 75 78 85 88 86 87 79 78 88 97 100 106 116 113 110 102 98 103 104 101 106 112 114
288 272 256 266 245 243 159 287 198 210 219 229 226 232 220 229 241 235 249 357 271 123 77 262 301 303 300 25 275 300 303 264 146 247 324 288 302 349 305 357 4 287 275 277 40 82 99 76 97 103 120 136 137 107 99 114 139 137 110 123 123 100 103 104 100 85 83 87 89 84 87 94 92 88 89 94 95 106 118 119 121 122 120 114 110 112 112
299 329 300 253 270 250 226 249 191 217 232 232 228 234 241 237 244 264 6 313 277 309 273 336 292 285 279 259 283 271 165 244 262 31 4 286 292 284 347 305 266 282 318 22 89 31 64 46 57 89 102 115 120 119 135 120 104 107 144 121 86 90 78 75 83 85 84 81 87 92 90 90 97 103 98 94 97 100 105 115 115 110 117 121 121 118 119
272 253 234 271 279 269 233 248 229 224 231 234 242 264 280 273 263 281 25 319 272 2 311 278 277 291 303 300 261 239 258 271 263 122 268 276 67 149 226 285 277 238 123 35 344 354 63 56 68 79 107 123 126 131 127 116 108 102 88 100 108 85 99 96 89 89 82 77 80 88 93 94 98 102 105 106 103 105 106 105 102 108 114 121 126 125 120
294 301 293 257 243 233 223 231 256 267 260 266 271 217 216 236 40 317 267 249 320 328 272 309 284 233 224 201 234 283 288 199 89 149 329 319 53 330 343 276 249 275 296 285 96 39 54 54 68 104 120 121 129 126 123 111 110 121 116 105 107 130 122 106 94 94 105 109 115 104 95 106 107 106 104 112 123 122 119 114 116 112 116 124 136 137 132
306 309 282 263 267 282 292 296 269 257 269 263 244 272 306 287 124 232 279 299 276 260 309 279 307 346 284 296 285 275 255 134 231 169 155 220 148 175 213 253 279 219 245 10 47 36 50 68 72 110 123 134 130 127 120 136 138 124 111 116 122 104 96 87 79 88 100 107 109 117 112 113 118 118 119 118 116 115 121 124 123 124 129 130 132 125 111
266 235 236 252 278 272 260 260 267 276 268 263 272 325 308 259 219 5 7 296 338 299 282 241 246 277 291 284 245 227 269 241 212 142 250 177 183 205 231 213 217 232 124 62 39 58 73 92 106 115 127 124 125 122 125 113 99 107 114 121 125 133 104 88 100 121 122 113 128 121 129 123 115 122 127 117 115 121 123 124 125 125 131 135 136 129 120
226 255 254 252 259 276 310 304 303 290 290 303 320 286 258 323 47 50 18 318 302 298 285 265 222 230 247 235 266 253 233 57 55 211 239 204 184 220 203 218 236 79 72 59 66 49 40 53 103 120 123 133 133 127 121 125 152 138 140 143 145 128 123 130 117 111 120 121 121 122 132 125 121 114 109 114 122 121 117 121 123 124 126 131 135 135 136
243 238 252 248 240 247 257 273 271 269 271 264 284 319 342 313 2 334 350 311 304 281 279 272 253 238 238 253 243 257 315 37 280 289 253 148 144 220 213 242 159 108 115 119 94 79 73 59 64 109 128 128 138 134 131 161 148 118 133 129 131 128 128 128 128 119 114 124 132 132 118 116 135 136 134 132 127 134 127 120 116 120 134 142 139 139 139